SCP
0 0 0 0 0 0 0 0 0 0 0 0 0 0 0 0 0 0 0 0 0 0 0 0 0 0 0 0 0 0 0 0 0 0 0 0 0 0
0 0 0 0 0 0 0 0 0 0 0 0 0 0 0 0 0 0 0 0 0 0 0 0 0 0 0 0 0 0 0 0 0 0 0 0 0 0
0 0 0 0 0 0 0 0 0 0 0 0 0 0 0 0 0 0 0 0 0 0 0 0 0 0 0 0 0 0 0 0 0 0 0 0 0 0
0 0 0 0 0 0 0 0 0 0 0 0 0 0 0 0 0 0 0 0 0 0 0 0 0 0 0 0 0 0 0 0 0 0 0 0 0 0
0 0 0 0 0 0 0 0 0 0 0 0 0 0 0 0 0 0 0 0 0 0 0 0 0 0 0 0 0 0 0 0 0 0 0 0 0 0
0 0 0 0 0 0 0 0 0 0 0 0 0 0 0 0 0 0 0 0 0 0 0 0 0 0 0 0 0 0 0 0 0 0 0 0 0 0
0 0 0 0 0 0 0 0 0 0 0 0 0 0 0 0 0 0 0 0 0 0 0 0 0 0 0 0 0 0 0 0 0 0 0 0 0 0
0 0 0 0 0 0 0 0 0 0 0 0 0 0 0 0 0 0 0 0 0 0 0 0 0 0 0 0 0 0 0 0 0 0 0 0 0 0
0 0 0 0 0 0 0 0 0 0 0 0 0 0 0 0 0 0 0 0 0 0 0 0 0 0 0 0 0 0 0 0 0 0 0 0 0 0
0 0 0 0 0 0 0 0 0 0 0 0 0 0 0 0 0 0 0 0 0 0 0 0 0 0 0 0 0 0 0 0 0 0 0 0 0 0
0 0 0 0 0 0 0 0 0 0 0 0 0 0 0 0 0 0 0 0 0 0 0 0 0 0 0 0 0 0 0 0 0 0 0 0 0 0
0 0 0 0 0 0 0 0 0 0 0 0 0 0 0 0 0 0 0 0 0 0 0 0 0 0 0 0 0 0 0 0 0 0 0 0 0 0
0 0 0 0 0 0 0 0 0 0 0 -0 -0 0 0 0 0 0 0 0 0 0 0 0 0 0 0 0 0 0 0 0 0 0 0 0 0 0
0 0 0 0 0 0 0 0 0 0 0 -0 -0 -0 0 0 0 0 0 0 0 0 0 0 0 0 0 0 0 0 0 0 0 0 0 0 0 0
0 0 0 0 0 0 0 0 0 0 0 -0 -0 -0 -0 0 0 0 0 0 0 0 0 0 0 0 0 0 0 0 0 0 0 0 0 0 0 0
0 0 0 0 0 0 0 0 0 0 0 0 -0 -0 -0 0 0 0 0 0 0 0 0 0 0 0 0 0 0 0 0 0 0 0 0 0 0 0
0 0 0 0 0 0 0 0 0 0 0 0 0 0 0 0 0 0 0 0 0 -0 -0 0 0 0 0 0 0 0 0 0 0 0 0 0 0 0
0 0 0 0 0 0 0 0 0 0 0 0 0 0 0 0 0 0 0 0 0 0 0 0 0 0 0 0 0 0 0 0 0 0 0 0 0 0
0 0 0 0 0 0 0 0 0 0 0 0 0 0 0 0 0 0 0 0 0 0 0 0 0 0 -0 0 0 0 0 0 0 0 0 0 0 0
0 0 0 0 0 0 0 0 0 0 0 0 0 0 0 0 0 0 0 0 0 0 0 0 0 0 -0 0 0 0 0 0 0 0 0 0 0 0
0 0 0 0 0 0 0 0 0 0 0 0 0 0 0 0 0 0 0 0 0 0 0 0 0 0 0 0 0 0 0 0 0 0 0 0 0 0
0 0 0 0 0 0 0 0 0 0 0 0 0 0 0 0 0 0 0 0 0 0 0 0 0 0 0 0 0 0 0 0 0 0 0 0 0 0
0 0 0 0 0 0 0 0 0 0 0 0 0 0 0 0 0 0 0 0 0 0 0 0 0 0 0 0 0 0 0 0 0 0 0 0 0 0
Wind_Speed
1 1 1 1 0 1 0 0 1 2 3 2 1 1 2 2 4 3 3 7 9 10 10 10 10 9 9 10 10 10 10 10 10 11 11 11 11 10
1 1 1 1 1 1 1 1 1 2 3 3 2 2 3 3 5 3 4 8 8 9 9 9 9 9 9 9 9 9 10 10 10 10 11 11 11 10
1 1 1 1 1 1 1 1 2 2 3 4 3 2 3 3 3 3 3 3 4 9 9 9 9 9 9 9 9 9 9 9 10 10 11 11 10 10
1 1 1 1 2 1 1 2 2 2 3 5 4 3 3 3 3 4 4 4 4 7 9 9 9 9 8 8 8 8 8 9 10 10 11 11 10 9
1 1 1 1 2 2 2 2 2 2 2 3 4 3 3 3 3 4 4 3 4 5 7 8 8 9 8 8 7 8 8 8 9 10 10 11 11 10
1 1 1 1 2 2 2 2 2 3 2 2 3 3 3 3 2 3 4 3 4 4 5 6 8 8 8 8 7 7 7 8 9 10 10 10 10 10
1 1 1 2 2 2 2 2 2 2 2 3 3 3 3 3 3 3 4 4 4 2 3 4 4 3 4 6 6 6 7 8 8 9 9 10 10 10
2 1 2 1 3 4 5 4 4 3 3 3 3 4 5 4 3 4 4 4 4 2 3 5 3 3 3 3 5 7 7 8 8 9 9 10 10 10
2 1 2 2 2 2 3 5 5 5 4 3 4 5 5 4 4 4 4 4 5 4 3 4 3 4 4 4 8 8 8 8 8 9 9 9 9 9
2 1 1 1 2 3 3 3 4 4 4 3 3 5 5 4 4 4 5 4 4 3 1 3 3 3 4 4 7 7 7 8 9 9 9 9 9 9
2 1 1 2 3 5 3 3 4 4 5 6 7 7 8 7 5 2 2 3 4 3 1 1 2 3 3 3 4 6 8 8 8 9 9 9 9 8
2 2 3 3 4 4 2 3 4 4 4 5 5 5 4 4 4 2 2 2 3 3 1 1 2 2 3 2 2 3 4 7 8 8 8 9 9 4
2 2 2 5 5 6 4 3 5 5 3 3 4 4 3 3 3 2 2 2 2 3 2 1 2 2 2 3 3 3 3 3 4 4 6 8 8 6
2 2 3 6 6 6 4 5 7 5 2 2 3 3 3 4 3 3 3 3 3 3 4 2 2 2 2 3 3 3 3 3 3 3 3 6 7 7
2 4 5 6 6 4 5 6 4 2 2 2 3 3 3 4 3 3 3 2 2 2 2 3 2 3 2 2 3 3 3 3 2 3 3 3 3 3
3 4 6 6 4 4 4 3 2 2 2 2 3 3 3 3 3 2 3 2 2 2 3 2 2 2 2 3 2 3 3 3 3 4 4 3 3 2
3 2 2 2 2 2 2 2 2 2 2 2 2 3 3 3 3 3 2 2 2 2 3 3 3 2 2 2 2 2 2 3 3 3 3 4 3 2
3 2 2 2 2 2 2 2 2 2 2 2 2 3 3 3 3 2 2 2 2 2 2 2 3 3 2 2 2 2 2 2 3 3 2 2 3 3
2 2 2 2 2 2 2 2 3 3 3 3 3 3 2 2 2 2 2 2 2 2 2 2 2 2 2 3 4 2 1 2 2 3 2 2 2 3
1 2 2 2 2 2 3 3 3 2 2 3 3 2 2 2 2 2 2 2 2 2 2 2 1 1 1 2 3 4 4 2 2 2 2 2 2 4
2 2 2 2 2 2 3 3 2 2 3 2 2 3 2 2 3 2 2 3 2 2 2 2 3 3 1 1 2 3 3 4 2 2 2 2 3 3
2 2 2 2 2 3 2 2 2 2 2 3 2 2 3 2 3 3 2 2 2 2 2 2 2 1 1 1 2 3 4 4 5 5 3 1 0 1
2 2 3 3 2 2 2 2 3 2 2 3 3 3 3 2 3 2 2 2 1 1 1 1 1 1 1 1 1 2 3 4 4 4 4 5 4 4
Wind_Direction
308 320 316 311 292 284 284 219 236 286 283 277 305 314 332 323 325 322 319 319 325 328 330 331 330 331 332 332 334 336 336 336 336 335 334 332 329 325
263 289 314 324 337 300 260 265 251 251 274 279 289 307 311 319 321 317 309 320 322 322 324 330 331 331 332 332 332 335 335 337 338 337 336 335 331 326
318 323 327 332 322 316 285 265 269 262 274 291 292 304 302 308 313 306 307 307 311 324 325 328 330 331 331 332 334 336 336 338 339 338 337 336 333 331
296 313 310 322 318 304 297 284 276 273 268 287 302 305 303 295 303 309 316 319 314 319 325 326 330 331 330 331 334 338 339 339 340 338 335 335 331 328
281 265 291 319 309 305 301 297 298 296 288 287 296 305 308 310 316 311 310 308 313 320 323 325 326 329 328 327 331 334 337 337 338 337 336 335 332 328
284 282 285 293 297 305 301 309 314 310 306 298 300 309 308 311 314 312 313 312 314 320 324 325 322 324 321 322 325 330 333 334 336 336 335 334 331 329
279 287 292 300 307 305 309 307 306 303 307 301 296 307 309 322 310 303 301 307 303 304 318 315 311 309 312 312 318 323 326 329 331 333 332 331 330 329
270 286 291 280 307 317 318 321 319 301 294 292 289 289 290 299 300 298 301 311 302 301 313 301 301 302 306 299 314 321 322 326 329 330 330 330 328 329
255 263 294 310 319 308 319 326 322 318 309 290 281 281 282 284 289 289 292 294 282 285 296 288 291 293 301 307 315 316 320 326 330 330 329 329 329 331
253 242 265 287 295 316 321 315 310 307 309 308 279 281 286 276 263 267 273 286 293 286 271 274 288 289 299 293 308 319 326 329 329 328 328 328 329 331
293 269 264 270 295 320 321 309 309 310 316 314 311 307 306 304 305 296 299 306 306 299 279 262 285 304 291 279 297 315 322 324 326 329 332 332 332 332
300 291 279 291 299 309 302 296 298 304 318 320 317 316 308 303 314 289 264 282 301 288 285 295 288 324 306 284 288 301 310 316 323 325 331 335 338 338
297 296 296 309 308 302 304 285 292 308 308 311 313 316 318 315 307 299 278 266 274 273 277 299 290 288 268 293 297 294 307 315 317 320 324 330 333 336
291 296 301 308 309 306 301 305 314 319 304 308 313 316 318 315 310 306 293 282 268 261 261 257 261 271 284 293 295 304 310 308 318 321 322 324 326 329
303 309 312 310 306 301 301 310 313 299 293 299 300 301 301 299 303 307 301 297 311 297 271 262 264 272 264 268 290 303 312 306 313 321 321 320 317 326
311 309 313 311 306 304 309 306 292 281 287 281 290 294 299 306 307 307 310 321 332 326 316 309 295 278 278 278 273 288 300 297 313 323 321 317 315 312
309 303 302 310 311 313 307 303 305 303 295 294 295 302 308 313 311 313 312 314 317 319 328 335 334 318 278 266 283 288 300 309 311 323 328 325 320 319
312 292 293 298 298 301 301 303 303 301 298 298 291 291 297 303 308 315 314 305 309 314 316 323 341 349 345 316 264 276 306 311 320 324 325 326 326 329
302 289 287 291 292 294 293 292 294 299 300 295 293 293 295 297 300 306 311 314 314 313 311 313 334 360 350 329 315 296 293 313 329 330 328 328 308 311
287 290 292 291 289 289 292 293 294 300 301 300 303 300 297 295 293 297 298 302 306 312 319 321 320 318 291 285 296 307 313 311 321 323 324 327 318 311
298 298 298 299 296 295 295 293 292 295 300 301 302 303 297 290 289 289 291 297 305 302 303 305 301 313 316 339 332 324 329 330 330 320 324 339 344 356
302 303 301 298 299 296 293 294 297 302 305 301 300 297 294 288 288 288 290 293 298 298 304 315 320 337 8 359 336 329 335 342 344 349 355 358 1 327
305 305 303 302 301 296 291 287 289 294 297 301 300 297 294 292 293 292 293 291 302 312 333 342 340 347 346 342 340 337 340 345 352 3 2 354 349 330